{"data":{"norad_id":45677,"epoch":"2026-05-25T04:56:25.801152Z","epoch_age_seconds":56942,"freshness":"FRESH","line1":"1 45677U 20035W   26145.20585418  .00046413  00000+0  12739-2 0  9991","line2":"2 45677  53.1529  67.8967 0003352 101.0208 259.1173 15.36819248330498","mean_motion":15.36819248,"eccentricity":0.0003352,"inclination_deg":53.1529,"raan_deg":67.8967,"arg_perigee_deg":101.0208,"mean_anomaly_deg":259.1173,"bstar":0.0012739,"rev_number":33049,"period_min":93.700023725887,"perigee_km":453.2315171251,"apogee_km":457.81280222575,"semimajor_km":6833.6591596754,"source":"CELESTRAK","updated_at":"2026-05-25T13:38:16.428579Z"}}